RH
7 7 6 6 6 6 6 5 6 6 6 6 5 5 5 4 4 3 3 2 3 3 3 4 3 4 4 4 4 4 4 3 4 3 3 3 2 3 2 2 2 2 4 6 8 9 10 11 13 14 17 20 24 27 26 25 25 29 44 47 49 68 78 78 83 89 81 72 74 71 71 69 69 72 63 49 38 28 24 19 13 11 9 8 8 8 9 12
8 7 7 6 6 5 5 5 5 6 6 7 6 6 6 5 5 4 4 3 3 3 3 3 3 4 4 4 4 4 4 4 4 3 3 3 3 3 2 2 2 2 3 4 7 8 9 9 11 13 14 16 20 27 29 28 25 32 49 48 52 70 74 79 86 87 81 74 74 73 71 72 70 68 62 52 38 29 27 18 9 8 9 8 9 8 9 13
9 8 8 7 6 6 5 5 4 5 5 6 6 6 6 6 6 6 6 4 4 3 2 3 3 3 4 4 4 4 4 4 4 4 4 4 4 3 3 2 2 2 2 3 5 6 8 8 9 10 11 13 16 23 28 31 28 29 47 55 61 73 74 79 86 89 89 79 74 76 76 77 73 68 68 60 44 35 33 23 10 6 8 7 8 9 10 14
12 11 10 8 8 7 6 5 4 5 4 5 5 6 7 6 7 7 7 6 5 4 3 3 3 3 3 3 4 4 4 4 4 4 4 4 4 4 3 3 2 2 2 2 4 5 8 10 10 11 10 10 13 19 26 32 32 27 41 62 72 75 78 82 85 93 97 88 81 80 81 84 81 74 70 62 51 43 39 31 15 4 6 7 8 10 11 14
15 14 12 11 9 8 7 6 5 5 4 4 4 5 6 6 7 7 8 8 7 6 5 4 3 3 3 3 4 4 4 4 4 4 4 4 4 4 3 3 3 2 3 2 3 5 9 11 11 12 12 11 11 17 22 27 31 29 37 58 73 79 84 87 88 94 99 96 89 84 83 87 86 79 70 59 53 49 39 31 21 9 5 6 7 9 12 14
18 17 16 14 12 10 8 7 6 5 4 4 4 4 4 5 6 7 8 8 8 8 7 6 4 3 3 3 3 3 4 3 4 4 4 4 4 4 4 4 3 3 3 2 3 5 9 12 12 13 13 12 13 17 21 24 28 34 43 54 70 83 86 86 90 91 94 97 94 87 86 90 91 82 71 61 54 52 41 27 22 16 8 6 7 7 11 13
21 20 19 18 16 13 10 8 6 5 4 4 3 3 3 3 5 6 7 8 9 9 8 8 6 5 4 3 3 3 3 4 4 4 4 4 4 4 4 4 4 4 3 2 3 4 8 11 13 15 14 13 16 19 22 25 26 36 54 59 67 83 85 85 87 81 82 92 95 90 88 93 98 87 74 67 55 51 44 27 20 17 10 7 7 7 10 13
25 24 22 20 18 16 12 9 7 5 5 4 3 3 3 3 3 5 6 8 8 9 10 10 8 7 5 4 3 3 3 4 4 4 4 4 4 4 4 5 4 4 3 3 2 3 6 9 12 14 14 13 15 19 22 27 28 38 63 67 66 79 84 85 82 74 78 91 93 91 92 94 98 92 79 70 55 45 40 28 19 14 10 8 7 8 9 13
28 26 23 21 19 16 13 11 8 6 5 4 4 3 3 3 3 4 5 6 7 8 10 11 10 9 7 6 4 3 4 4 4 4 4 4 4 4 4 5 4 4 4 3 2 3 5 7 11 10 11 12 13 17 19 27 34 43 68 74 70 78 81 82 78 74 83 94 94 91 95 96 96 94 83 71 56 39 31 27 20 12 9 8 7 8 9 12
26 24 21 18 16 14 12 10 9 7 5 4 4 4 3 3 3 3 4 4 6 7 9 11 12 11 9 8 6 5 4 4 4 4 4 4 4 4 4 4 4 5 4 3 3 3 4 6 8 8 9 9 12 16 14 26 42 54 74 80 77 80 77 77 75 74 84 94 96 92 93 97 96 93 83 74 61 39 26 26 23 12 8 7 6 8 8 11
20 18 15 13 11 10 9 9 8 6 5 5 5 4 4 3 3 3 3 3 4 5 8 10 12 13 11 10 8 7 6 5 4 4 4 4 4 4 4 4 4 5 4 4 3 2 3 4 6 6 7 10 12 14 13 24 44 62 82 87 86 86 79 78 75 73 82 88 92 91 90 93 95 93 84 76 64 41 26 26 25 15 8 6 6 7 8 10
12 11 10 9 8 7 7 7 6 6 5 5 5 5 4 4 3 3 3 3 4 4 6 8 11 13 13 12 10 8 7 6 5 4 5 4 4 4 4 5 4 5 5 4 4 3 3 3 6 6 7 14 15 14 14 18 37 61 79 88 92 92 85 84 83 75 75 79 84 90 92 92 93 92 85 77 62 38 25 25 26 20 11 7 6 6 8 9
8 7 7 7 6 6 6 6 6 5 5 5 5 5 5 5 4 4 3 3 3 3 5 7 9 12 13 14 13 10 8 7 6 5 5 5 5 4 4 5 4 5 4 4 4 3 3 2 4 6 7 13 14 17 19 15 34 59 68 80 92 95 86 84 90 82 70 73 79 85 93 96 94 91 85 79 64 38 23 22 25 25 15 7 6 6 7 8
6 6 5 5 5 5 5 5 5 4 5 5 5 5 5 5 4 4 4 3 4 3 4 5 7 10 12 15 16 13 10 8 8 6 6 6 5 5 4 4 4 4 4 5 5 3 4 2 3 6 7 9 10 18 24 18 30 51 60 76 93 94 86 83 91 87 72 70 76 81 91 97 96 95 88 79 70 47 25 20 22 26 20 9 6 5 6 8
4 3 3 3 3 3 3 3 3 3 3 3 4 4 4 4 4 4 4 4 4 4 4 4 6 8 11 14 15 16 14 10 9 7 7 6 5 5 4 4 4 4 5 4 5 5 4 3 3 5 6 8 11 15 22 19 25 44 58 75 93 95 89 87 91 85 71 68 74 79 87 96 99 100 93 81 75 55 29 22 20 23 24 15 8 6 5 8
2 2 2 2 2 2 2 2 2 2 2 2 2 2 3 3 4 4 4 5 5 4 4 5 5 7 9 12 14 18 17 14 10 8 8 7 6 6 5 5 4 4 5 4 5 5 4 4 3 4 5 8 12 13 19 20 23 40 56 72 88 92 90 90 87 79 71 67 70 74 81 91 97 102 96 86 80 59 33 28 23 21 25 20 12 7 5 7
2 2 2 2 2 2 2 2 2 2 2 2 2 2 2 2 3 3 4 5 5 5 5 5 5 6 8 10 13 17 20 18 13 10 9 9 8 7 6 5 5 4 4 4 5 5 5 5 3 4 5 7 10 12 17 22 23 33 52 74 87 86 88 90 81 74 71 68 66 68 77 85 94 102 97 88 81 58 37 33 27 23 25 21 14 7 5 6
2 2 2 2 2 2 2 1 2 2 2 1 1 2 1 2 2 2 4 5 6 7 7 6 5 7 8 9 13 17 21 21 17 13 10 10 9 8 7 5 5 5 4 5 5 5 6 5 4 4 5 7 10 12 15 23 30 38 53 78 91 88 91 92 82 74 71 69 69 72 79 85 96 101 94 88 79 56 38 34 29 25 25 23 14 7 5 6
2 2 2 2 1 2 2 1 2 1 1 2 1 2 1 2 2 2 3 5 8 8 8 8 7 7 8 9 14 19 23 23 20 16 12 12 11 9 8 6 6 5 5 5 5 6 6 5 5 3 4 6 9 13 19 28 35 39 51 73 90 89 90 91 82 78 73 68 73 82 86 91 98 99 93 88 76 53 39 35 32 28 25 24 17 9 5 5
2 2 2 2 2 2 2 2 2 2 2 2 1 2 2 2 2 2 3 5 9 10 9 9 9 8 9 11 16 20 23 25 23 19 14 13 12 10 9 7 7 6 5 5 5 6 5 6 6 4 4 5 8 12 20 35 36 33 49 77 94 92 92 89 79 85 83 67 73 88 94 97 99 98 95 89 71 50 41 40 41 36 28 23 19 13 7 4
1 2 2 2 2 2 2 2 2 2 2 2 2 2 2 2 2 2 2 3 7 12 13 11 11 11 11 14 19 22 24 26 25 21 16 14 13 11 9 8 7 6 6 5 5 6 6 7 6 5 4 3 7 9 14 34 39 37 57 86 102 97 92 86 76 91 92 69 75 92 96 100 99 97 96 88 72 53 45 47 47 43 36 26 19 15 10 5
2 2 1 2 2 2 2 2 2 3 2 2 2 2 2 2 2 2 2 3 6 13 16 14 13 13 15 19 23 26 27 28 27 24 19 15 14 12 10 8 7 7 7 6 6 6 6 8 7 5 5 3 5 8 12 26 34 39 54 78 98 95 90 88 80 94 96 74 78 90 93 100 98 97 97 89 77 59 49 53 52 44 39 31 19 16 15 9
2 1 2 2 2 2 2 2 3 3 2 3 2 3 3 2 3 2 2 3 6 13 19 18 15 15 19 25 28 29 31 30 28 25 21 17 15 13 11 9 8 7 7 7 7 6 6 8 9 6 5 4 4 7 13 19 27 36 48 68 86 88 91 93 83 93 98 82 81 87 91 96 92 94 97 91 83 68 58 60 60 51 45 36 20 17 22 17
2 2 2 2 2 3 3 3 3 3 3 3 3 3 4 3 3 3 3 3 6 16 23 22 18 21 25 30 33 32 33 32 29 26 21 18 16 13 11 10 8 7 7 8 7 7 8 7 9 9 6 5 4 6 11 17 23 29 43 63 72 78 89 89 84 95 97 88 86 85 86 89 88 94 98 92 82 75 71 71 72 66 58 50 31 19 21 19
2 2 2 2 3 3 3 4 3 4 4 4 5 4 4 4 3 3 4 4 10 21 28 28 26 30 34 37 38 36 34 32 29 26 22 19 17 14 12 10 9 8 7 8 8 8 8 8 10 12 9 6 4 4 7 15 20 23 36 54 63 75 87 87 90 97 94 91 91 88 86 88 90 93 94 92 87 86 86 83 82 76 69 66 52 30 20 18
2 2 3 3 3 3 4 4 4 5 5 5 6 5 5 5 4 4 4 6 16 28 32 33 36 38 40 42 42 38 35 33 30 26 23 20 17 14 12 11 9 9 7 8 9 9 8 9 11 12 11 9 6 4 6 10 18 23 28 41 58 75 84 87 94 98 96 90 87 89 91 92 94 93 89 86 87 93 96 91 87 80 74 75 71 52 32 21
2 3 3 3 3 3 3 3 5 5 5 6 5 5 5 4 5 4 4 10 22 33 35 35 36 37 38 43 45 39 33 32 30 26 23 20 18 15 13 11 10 9 8 8 9 9 9 10 10 10 11 11 8 5 5 6 14 21 20 27 48 65 73 83 94 99 96 88 86 90 91 92 93 92 91 87 85 91 96 94 91 87 82 81 82 75 59 39
3 3 3 3 3 3 4 4 5 4 5 6 4 5 5 4 6 4 6 18 26 33 36 34 34 37 38 40 42 38 33 32 29 26 24 21 18 16 13 11 10 9 8 8 9 10 11 11 10 8 9 12 11 9 5 5 10 14 14 20 36 50 57 71 90 99 92 89 95 91 87 93 89 85 90 90 89 92 93 92 93 94 89 84 82 80 77 65
3 3 3 3 3 4 4 4 4 5 5 5 5 6 5 5 6 3 10 27 31 33 37 33 34 40 41 39 37 35 33 31 29 26 25 22 19 17 14 12 11 10 8 9 11 12 12 11 9 8 8 10 12 11 7 6 7 7 11 18 26 38 47 55 75 92 90 92 99 92 87 92 87 82 86 87 88 90 89 87 89 92 87 80 79 79 79 78
3 3 4 5 6 6 6 6 6 6 5 6 6 5 5 6 5 8 19 30 33 36 37 34 34 40 43 40 34 31 30 30 30 28 26 24 21 18 16 13 11 10 9 10 10 10 11 11 9 8 7 7 9 11 11 9 7 4 9 17 21 30 43 49 57 69 79 89 96 92 90 89 85 84 82 82 86 84 83 82 80 83 81 74 75 76 73 74
3 4 8 11 13 11 11 11 9 8 8 7 6 5 7 4 5 20 30 29 35 43 39 35 37 40 44 43 34 29 30 31 31 30 27 26 23 20 18 15 12 11 10 10 9 9 11 9 9 8 7 7 7 9 12 11 10 7 7 12 17 24 35 44 47 49 63 83 90 89 92 91 85 82 79 82 87 83 79 78 75 76 77 73 71 71 68 70
4 7 13 18 21 17 12 11 10 10 8 7 6 6 6 5 10 26 31 29 41 49 41 37 40 41 44 44 37 29 29 31 31 31 28 26 24 21 20 16 14 12 10 10 9 10 11 9 8 8 7 8 7 8 9 9 12 11 8 7 11 18 24 34 44 44 51 68 75 82 95 94 81 75 80 84 84 83 80 75 73 72 72 72 71 68 68 71
5 11 17 21 24 21 13 10 9 8 6 7 8 6 8 17 19 21 25 30 41 47 43 40 40 41 43 43 36 27 25 28 29 28 26 25 24 21 20 18 15 14 11 10 9 9 10 9 8 9 8 8 8 8 8 9 11 10 11 10 7 11 16 22 33 41 52 58 52 65 92 97 82 73 81 87 83 84 82 77 75 73 70 69 68 69 69 68
7 13 19 21 24 24 17 11 7 7 7 7 9 10 20 30 23 18 27 35 41 46 46 41 39 40 41 39 33 23 21 24 25 24 21 21 21 19 19 19 17 15 13 11 10 9 9 9 9 9 9 9 8 9 8 8 10 8 10 12 11 11 9 13 22 28 46 50 35 53 87 92 81 72 77 87 87 85 85 81 79 76 73 69 66 69 71 69
9 16 20 20 22 24 22 13 6 6 7 7 16 24 27 28 20 20 33 40 43 45 43 39 38 36 35 34 29 22 20 22 23 23 20 17 17 16 16 17 17 16 15 14 12 10 10 10 10 9 9 9 9 9 8 8 10 9 9 9 14 14 8 22 36 25 31 42 33 48 71 71 71 75 77 84 87 87 88 87 86 82 77 73 67 66 70 72
10 17 19 18 20 23 25 19 8 6 6 9 22 27 24 23 22 24 34 42 45 43 39 40 40 35 31 30 27 23 22 25 26 25 24 21 17 15 14 15 16 17 16 16 13 12 11 10 10 10 10 9 9 9 9 9 11 10 10 9 11 13 8 20 35 20 18 33 34 39 47 49 64 76 76 78 82 86 89 88 89 86 80 76 71 65 67 74
12 19 17 16 19 22 27 25 15 7 5 9 15 19 23 27 25 27 35 42 45 43 41 43 42 38 33 29 28 26 25 28 29 28 27 26 21 18 17 16 17 18 17 17 15 12 12 11 11 11 10 10 10 9 8 9 10 10 14 12 8 10 10 12 21 15 8 22 37 40 36 39 55 68 73 76 79 83 86 87 88 86 82 78 73 68 67 72
15 20 16 15 19 23 26 28 23 12 6 9 10 14 30 35 30 34 40 40 44 45 44 44 43 41 37 32 30 29 28 29 30 29 28 28 25 22 19 17 17 18 17 18 16 14 14 12 12 12 12 11 9 9 9 8 9 10 12 11 8 11 14 14 20 17 7 20 40 37 28 32 37 44 61 75 78 78 81 85 87 86 85 82 77 72 68 69
16 20 17 15 17 24 27 28 30 22 10 10 10 16 32 38 39 48 50 47 47 47 47 46 45 44 40 37 35 33 33 33 33 32 30 29 29 26 23 20 19 17 17 17 17 16 15 13 13 13 12 13 11 10 10 8 8 9 9 10 10 11 13 15 20 20 16 29 37 20 17 33 31 23 40 63 74 77 78 82 86 86 85 84 81 76 72 71
17 21 18 17 16 21 27 28 31 29 16 8 11 20 30 35 46 62 64 61 59 55 55 55 54 53 47 44 45 43 41 41 40 39 36 34 34 32 29 25 22 20 17 17 18 18 18 16 16 14 13 14 13 11 11 10 9 8 9 11 10 10 13 13 15 15 18 37 51 35 20 26 25 17 24 42 59 70 75 79 82 80 77 80 82 81 79 79
17 23 20 20 17 18 25 28 31 34 27 13 7 17 27 31 46 64 71 73 70 65 65 63 61 61 56 52 54 53 50 48 46 45 43 40 37 35 34 30 27 24 20 18 18 18 20 19 18 17 16 15 14 13 12 11 11 8 9 10 8 10 12 11 16 16 10 25 59 66 41 19 14 13 15 24 37 50 61 69 73 68 64 75 84 86 87 89
14 22 22 23 21 18 21 27 30 34 36 28 14 11 19 26 39 56 67 75 77 73 72 71 68 66 64 61 59 57 55 53 51 49 48 45 42 38 36 33 29 26 23 21 19 18 19 20 19 18 18 16 15 15 14 13 12 10 10 9 8 10 10 12 26 30 17 13 34 54 48 26 13 10 10 14 21 31 40 50 54 52 59 79 90 89 93 96
8 20 26 26 25 22 19 22 26 31 37 41 32 20 15 16 26 43 58 70 80 82 79 79 79 75 71 69 65 61 60 57 54 52 50 49 46 42 39 35 31 27 25 23 21 19 19 19 19 18 18 18 17 16 15 14 13 12 12 9 9 11 8 10 19 25 25 22 20 30 37 28 18 13 9 9 13 18 26 35 38 42 65 91 97 93 96 98
6 17 27 29 28 28 23 19 20 24 29 39 43 39 33 23 19 28 39 50 68 82 81 80 85 84 80 77 72 68 66 63 60 56 52 51 49 45 42 38 33 30 27 25 23 22 20 19 19 18 17 17 17 16 15 15 14 13 12 11 10 10 9 11 14 18 27 27 18 23 33 32 25 20 13 10 10 11 16 25 28 37 65 92 98 97 98 98
7 14 23 27 30 32 31 26 21 18 18 23 31 37 42 42 38 37 36 34 41 52 57 60 67 73 76 76 72 70 69 66 63 59 55 52 49 46 44 40 37 33 30 27 25 23 22 20 19 19 18 18 18 17 16 15 14 13 12 12 12 10 10 12 15 19 23 20 18 25 35 37 33 25 16 10 10 10 10 16 21 30 52 74 86 95 98 97
8 10 13 21 30 32 33 34 30 24 18 15 17 20 24 31 39 45 48 47 44 41 39 39 41 46 55 60 61 64 68 68 65 60 56 52 48 45 42 39 38 36 33 31 28 25 24 22 20 19 18 19 19 17 15 14 14 14 12 12 11 11 12 11 14 22 24 21 21 21 24 30 33 29 20 11 9 11 10 11 14 21 35 51 68 89 98 96
10 9 9 14 22 24 28 35 35 31 27 21 17 16 16 17 20 25 33 41 46 47 44 41 37 35 39 44 46 51 56 61 63 61 57 53 49 46 42 38 36 34 32 31 29 28 26 23 22 20 19 18 18 17 16 15 15 14 14 13 12 12 13 13 15 19 20 21 21 16 15 20 20 19 18 12 9 12 11 10 11 13 22 33 53 80 96 95
12 11 10 10 12 12 19 33 38 36 33 30 26 23 21 20 18 17 18 20 25 32 36 39 41 42 42 43 44 46 49 52 54 56 55 52 49 47 43 39 36 32 30 28 27 27 26 25 24 22 21 19 18 17 17 16 16 16 15 15 14 13 15 16 16 15 16 19 18 15 17 17 10 10 13 12 10 11 10 11 10 10 14 20 36 69 92 95
14 13 12 11 11 9 11 22 36 41 38 35 33 33 31 29 27 24 22 21 19 19 21 23 26 30 34 35 37 40 42 43 44 45 46 45 45 44 41 38 36 33 31 29 27 25 24 24 23 22 21 21 19 19 17 16 16 16 16 16 16 16 15 16 17 16 17 19 16 15 21 20 14 13 14 13 13 12 10 10 9 8 11 13 24 53 83 93
14 14 15 14 13 12 10 11 22 35 41 39 37 38 37 36 35 33 31 30 27 24 23 22 19 17 18 18 18 21 23 24 25 26 26 26 29 31 30 30 30 29 28 29 28 27 25 25 24 22 21 20 19 18 17 17 16 15 15 15 15 17 17 18 18 17 17 19 17 18 22 21 20 21 18 15 15 13 10 10 9 8 8 10 15 35 67 87
15 14 15 16 15 15 14 11 10 17 29 38 41 42 42 41 40 39 37 35 33 31 29 27 24 23 21 19 17 16 15 14 13 13 13 13 14 16 16 17 17 17 18 20 20 20 21 21 21 21 21 21 20 19 18 17 16 15 14 14 14 15 16 17 18 18 18 18 16 21 24 20 18 22 21 18 17 14 12 10 9 9 8 8 9 19 45 74
16 15 15 16 17 17 17 16 13 10 12 19 27 32 36 39 40 39 39 38 37 35 33 30 28 26 26 25 25 23 21 19 17 15 14 13 12 12 11 11 11 10 10 11 12 12 12 12 13 14 15 16 16 18 18 17 17 16 14 12 12 13 13 14 16 17 19 19 20 26 27 19 15 20 22 19 16 14 14 12 9 9 8 8 8 10 22 47
Wind_Speed
18 18 18 17 18 18 19 19 19 19 20 20 20 20 20 19 18 18 18 18 19 19 19 19 18 19 19 19 19 18 18 17 17 15 14 14 15 15 16 18 17 16 15 14 14 16 18 20 21 21 21 20 18 15 14 12 9 7 6 5 4 5 5 8 10 13 15 16 17 16 16 16 16 16 15 13 12 11 10 11 12 14 15 14 12 10 11 16
19 19 19 18 18 19 20 20 21 20 21 21 22 22 21 21 20 19 19 19 19 19 19 20 19 19 20 20 20 20 19 19 18 16 14 14 15 16 17 18 17 16 17 16 15 15 16 19 21 22 22 21 19 17 15 14 12 10 8 6 6 6 6 8 10 13 16 16 16 16 16 16 16 16 15 13 12 12 10 10 12 15 16 14 13 10 10 15
20 20 20 20 19 20 20 21 22 22 22 23 23 23 23 22 22 21 20 20 19 19 19 20 20 20 20 20 21 21 21 20 20 18 16 15 15 16 17 18 17 17 18 17 16 14 13 14 17 20 21 21 20 19 17 15 15 12 9 7 7 7 7 9 10 12 15 15 15 15 15 15 14 13 13 12 11 12 10 9 10 15 17 15 15 11 11 15
20 20 21 21 20 20 21 21 22 23 23 23 24 24 24 24 23 23 22 22 21 20 19 20 20 21 21 21 21 22 22 22 21 20 18 17 16 16 17 18 18 18 18 18 17 14 11 11 13 16 19 19 19 19 18 17 16 14 12 9 8 8 7 9 10 11 13 14 13 13 15 15 13 12 11 11 12 12 12 10 8 12 17 16 16 13 12 16
21 21 21 21 21 21 21 22 22 23 24 24 25 25 26 26 25 24 24 23 23 22 20 20 20 20 21 21 22 22 23 23 23 21 20 18 17 17 17 17 18 19 19 19 19 16 12 11 12 14 16 17 18 18 18 18 16 15 13 11 10 9 8 9 10 10 11 13 13 13 14 14 12 12 10 10 11 11 12 13 10 10 14 15 16 15 13 15
22 22 22 22 22 22 22 22 23 24 24 25 25 26 26 27 26 26 25 25 24 24 22 21 20 20 21 22 22 23 23 23 23 23 21 20 19 18 18 18 18 19 19 20 20 19 16 14 13 14 16 16 17 18 18 17 17 16 15 13 12 11 9 9 8 9 10 11 15 15 14 13 12 11 10 10 10 9 11 14 13 11 12 13 14 16 14 14
23 23 23 23 22 22 22 22 22 23 24 26 26 26 26 27 27 27 27 27 26 25 24 23 21 21 21 22 22 23 23 23 23 24 23 22 21 20 19 18 19 19 20 21 22 22 20 17 16 16 17 18 18 17 17 16 17 18 16 14 14 13 11 10 8 9 9 11 16 15 14 15 14 12 11 11 10 11 11 12 14 14 13 12 12 14 13 13
24 24 24 24 24 23 23 23 23 23 24 25 26 26 26 27 27 28 28 28 28 27 26 25 23 22 22 22 23 23 23 23 24 24 23 23 22 22 21 20 20 20 21 22 23 24 23 20 19 19 20 20 19 18 17 17 18 19 16 15 15 15 13 11 9 8 7 11 15 15 15 17 16 13 12 11 11 12 12 12 14 15 15 14 13 13 14 13
26 25 24 24 24 24 23 23 23 23 24 25 26 26 26 27 27 28 29 29 29 29 28 27 25 24 23 23 23 23 23 23 24 24 24 24 23 23 23 22 21 20 21 23 24 25 25 23 22 21 21 20 20 19 18 18 19 19 17 15 14 15 14 13 10 7 7 10 14 16 16 18 18 14 12 11 11 12 13 14 14 16 17 16 15 15 15 15
25 25 25 24 24 23 23 23 23 23 23 24 25 26 27 27 28 29 29 30 30 30 30 29 28 27 25 25 24 23 23 24 24 24 24 25 25 24 24 25 23 22 22 23 25 26 26 26 24 22 21 19 19 19 19 18 19 19 17 16 14 14 14 13 11 8 8 8 11 15 17 20 20 16 14 13 11 11 12 14 14 15 18 17 16 15 15 15
24 24 23 23 23 22 22 22 22 22 23 24 24 25 26 27 28 29 30 30 30 31 31 30 30 29 28 27 26 24 24 25 25 25 24 25 25 25 26 26 26 24 23 24 26 27 28 27 25 23 21 17 17 19 19 19 21 20 18 17 15 14 14 12 11 10 9 8 9 14 17 21 22 18 16 15 13 12 12 14 15 15 17 18 17 16 15 15
22 22 22 22 22 21 22 22 22 22 23 24 24 25 26 27 28 29 30 31 31 31 32 32 31 31 31 30 28 26 25 25 25 25 24 25 26 26 27 27 27 26 26 25 26 27 27 27 26 24 19 15 17 18 18 21 22 21 20 18 15 14 14 13 12 11 10 8 9 11 15 20 22 19 18 16 14 13 13 14 15 15 17 18 18 17 16 15
20 21 21 22 22 21 22 22 22 23 24 25 25 25 26 27 28 30 31 31 32 32 32 33 32 33 32 31 30 28 27 26 26 26 25 25 26 27 28 28 28 28 27 25 25 25 26 27 27 24 20 18 17 14 16 21 23 23 22 20 16 14 15 15 13 12 12 10 9 10 14 19 20 20 19 17 15 14 13 14 15 15 16 18 19 18 17 16
20 21 21 22 22 22 22 22 22 23 25 26 26 26 27 28 29 30 31 32 33 33 33 33 33 33 33 33 33 31 29 27 27 26 26 26 26 27 28 29 29 29 29 26 24 24 25 27 27 26 23 20 16 13 15 20 23 24 24 22 17 15 16 16 14 13 13 11 9 10 14 19 19 20 20 19 17 15 14 15 16 16 16 18 19 19 18 16
20 21 21 22 22 22 22 22 22 22 24 25 26 27 28 29 30 31 32 33 33 33 34 34 34 34 34 34 34 33 31 30 29 27 27 27 27 28 29 30 31 31 30 28 26 24 25 26 27 28 25 20 17 16 17 19 23 24 24 22 20 17 16 16 15 14 14 13 10 9 12 17 19 23 23 21 19 17 15 16 17 18 17 17 19 19 18 17
21 21 21 22 22 22 22 22 21 22 23 24 25 27 28 30 31 32 33 34 34 34 34 34 34 34 35 35 35 34 33 32 30 29 28 27 27 27 29 30 31 31 31 30 27 26 27 28 29 28 25 23 20 18 19 20 22 25 25 23 22 20 16 15 16 15 14 14 12 10 12 16 21 26 26 23 21 19 17 16 16 18 18 18 19 19 19 19
23 22 23 23 23 22 23 22 21 21 23 24 25 26 28 30 32 33 34 34 35 35 34 34 34 35 35 36 36 35 35 33 31 30 29 28 27 27 28 30 30 31 32 30 29 28 28 29 28 27 26 26 22 19 20 21 22 25 26 24 23 22 17 14 17 16 13 12 12 11 12 17 24 29 28 26 23 21 19 17 17 19 19 19 20 21 21 21
26 25 24 25 25 24 24 24 23 22 23 24 24 26 28 30 33 35 35 36 36 35 35 35 34 35 36 36 36 35 34 34 33 32 31 29 29 28 28 29 30 31 32 31 31 30 29 29 29 30 30 28 24 20 20 22 22 24 27 24 23 23 19 16 16 15 14 12 11 11 11 18 28 32 30 27 24 22 21 19 18 19 20 19 20 21 22 22
28 27 26 25 25 25 26 26 25 24 25 25 25 26 28 30 33 35 36 36 36 36 36 35 35 35 36 36 35 34 35 35 34 33 32 31 29 28 28 29 29 30 32 31 31 31 31 30 30 31 30 28 26 23 23 26 26 27 29 27 25 24 22 19 17 15 14 13 11 12 14 21 29 32 29 26 25 23 21 19 18 20 20 19 19 20 22 22
29 29 28 27 26 25 25 26 25 25 26 26 26 27 29 31 33 34 35 36 36 36 36 35 35 35 35 35 35 36 36 35 35 35 34 33 31 29 29 30 30 31 31 31 32 32 32 31 30 29 30 31 30 29 28 27 26 28 29 28 26 24 23 22 20 17 15 14 12 14 18 22 26 28 26 26 26 24 23 21 20 20 19 19 19 19 21 22
31 31 31 30 28 27 26 25 24 25 27 27 27 28 29 31 32 32 33 34 35 35 36 35 35 35 35 35 36 36 37 37 36 36 35 35 33 31 30 31 31 31 31 31 32 33 33 32 31 32 34 35 34 33 29 24 23 26 29 29 27 26 25 23 22 19 17 16 14 14 17 20 22 26 27 27 25 24 24 24 22 21 20 19 19 19 20 21
33 34 33 32 30 28 27 25 24 25 27 28 27 28 29 30 31 31 32 32 33 33 34 35 35 35 35 35 36 36 37 37 37 36 36 35 34 33 33 32 32 32 31 31 32 34 34 33 34 35 36 35 34 34 29 25 25 28 31 31 29 28 26 24 24 21 19 18 15 14 16 17 18 23 29 29 25 25 25 23 23 22 21 20 19 19 19 20
35 34 34 32 30 28 26 24 23 25 27 27 27 26 27 28 28 28 29 29 30 32 33 35 36 35 35 35 36 36 37 37 37 37 37 36 36 35 34 33 34 33 32 31 31 33 34 35 36 36 35 35 35 36 33 29 28 29 32 32 30 30 28 27 27 24 20 19 17 16 15 15 14 19 30 32 26 25 24 23 21 20 20 20 20 21 21 21
35 34 33 31 29 27 24 22 22 23 24 24 24 24 24 24 24 24 25 25 27 29 32 35 36 35 34 35 35 36 37 38 38 38 38 38 37 36 36 35 35 34 32 32 32 32 35 37 36 35 35 36 36 37 36 33 30 31 32 34 33 33 32 30 28 24 22 21 19 17 15 15 14 17 27 32 27 25 23 21 20 19 19 18 18 20 22 23
35 34 33 31 28 26 22 20 20 21 21 21 20 21 20 20 20 21 21 23 25 28 31 33 34 34 34 34 35 36 37 37 38 38 39 39 39 38 38 36 35 35 34 34 34 34 36 36 35 36 36 35 36 37 38 36 34 32 33 36 35 34 33 30 28 25 23 23 22 20 17 17 18 18 23 26 24 24 22 21 21 20 19 17 17 19 20 22
35 34 33 30 27 24 21 19 17 17 17 17 17 17 17 17 18 19 20 22 25 28 31 32 33 33 33 34 35 35 36 37 38 38 39 40 40 39 38 37 37 37 36 35 36 36 37 36 37 39 38 36 37 38 39 39 37 34 35 36 35 35 34 32 30 27 26 27 26 23 20 19 21 22 22 22 21 22 22 22 22 21 19 18 19 19 19 20
34 33 31 27 23 21 18 16 14 14 14 14 14 14 15 16 16 17 18 21 24 28 30 32 32 33 34 34 34 35 36 37 37 38 39 40 40 39 39 39 39 37 36 37 38 38 37 36 38 40 38 38 37 37 39 39 38 37 36 35 36 36 36 35 33 31 31 30 27 26 23 20 23 25 24 23 22 22 23 22 21 21 19 18 20 19 19 18
33 32 28 24 20 18 15 13 11 10 11 11 11 12 13 14 14 15 18 21 24 27 29 30 30 31 33 33 34 35 36 36 37 38 39 40 40 40 40 40 39 38 37 37 38 37 36 37 39 39 39 38 37 36 37 37 39 40 35 34 36 37 37 37 36 35 34 31 28 29 25 21 23 25 24 24 23 22 23 21 21 22 21 19 20 20 19 18
32 30 26 22 18 16 13 11 9 8 8 9 9 10 11 11 12 15 19 21 23 26 29 29 30 31 32 33 33 34 34 35 36 37 38 39 40 41 41 41 40 39 38 37 39 39 38 38 39 40 40 39 38 36 35 35 38 39 35 34 36 36 36 37 37 37 35 32 31 31 27 25 25 25 24 23 22 22 22 22 22 23 22 21 20 20 19 19
30 27 23 19 17 15 12 10 8 7 7 7 7 7 8 9 12 15 18 21 23 26 29 30 30 31 31 31 32 32 32 32 34 35 36 38 39 40 40 40 40 39 39 40 41 39 38 38 38 38 39 38 36 34 32 33 36 36 36 37 36 35 36 37 36 37 35 34 33 32 32 29 26 27 28 24 22 23 21 22 22 22 22 21 20 19 19 19
28 24 19 17 16 14 11 9 7 6 5 4 3 4 6 8 12 15 17 20 23 25 28 29 29 29 30 30 30 30 30 31 32 34 35 36 38 39 40 39 40 40 40 41 40 37 37 39 38 37 36 35 34 33 33 34 34 34 36 38 38 37 37 37 37 37 35 35 36 35 34 33 30 30 29 26 25 24 22 22 21 21 21 21 21 20 18 19
25 20 17 16 16 15 12 9 6 5 3 1 0 2 5 8 12 14 17 21 24 26 29 29 28 29 29 30 29 28 30 31 32 33 34 35 36 38 39 39 40 40 39 40 39 37 38 39 37 35 34 33 33 34 34 34 33 34 35 36 38 39 38 38 39 37 35 36 38 36 35 36 37 32 28 27 27 25 24 23 21 21 21 21 21 21 21 21
22 17 16 16 16 16 13 10 7 6 5 4 4 3 5 8 11 14 18 23 25 26 27 28 28 28 28 28 28 27 28 30 31 32 32 33 34 35 36 37 37 38 39 39 38 37 38 38 37 36 36 35 34 35 35 35 34 35 35 35 37 39 40 41 41 38 37 38 38 36 36 39 40 35 30 30 29 27 26 24 22 21 21 21 22 23 23 23
20 16 15 15 15 15 13 10 8 7 6 6 5 4 5 8 11 15 18 20 22 24 25 26 27 28 28 28 28 27 28 28 30 31 31 32 33 33 35 35 36 37 37 37 37 38 39 39 39 38 36 36 35 35 35 34 34 34 35 35 35 36 38 38 39 39 39 38 35 33 37 41 41 37 34 32 31 29 27 26 24 23 23 23 23 24 24 25
18 15 15 15 14 13 12 10 8 7 6 5 6 5 5 8 11 15 18 19 20 22 24 25 25 26 26 27 26 26 27 27 28 30 30 31 31 32 33 33 34 35 35 34 35 37 39 40 39 37 36 36 36 35 34 32 33 34 33 34 36 36 36 34 34 38 38 37 34 34 39 43 41 38 36 35 33 31 30 28 26 25 25 24 24 24 24 25
17 14 15 15 13 11 9 8 7 6 5 5 5 5 6 8 11 14 17 19 19 21 23 23 24 24 24 25 25 25 25 24 25 27 28 29 30 30 31 31 32 33 34 34 35 35 37 38 38 37 38 38 37 37 35 34 35 35 33 35 37 37 37 34 32 35 38 38 36 37 41 42 38 38 39 38 36 34 32 30 28 27 26 26 26 25 24 25
15 14 14 15 14 11 8 6 6 6 6 4 4 7 7 7 10 13 16 18 18 20 21 22 23 23 23 24 24 24 24 23 24 25 26 27 28 29 30 30 30 31 32 33 34 35 36 37 36 37 38 38 38 37 37 37 37 35 36 37 36 34 34 35 33 33 36 37 34 36 42 41 39 40 42 40 39 37 35 32 29 28 27 27 27 25 25 25
14 13 14 16 15 12 8 5 4 6 6 5 6 8 8 8 9 12 15 17 18 19 21 21 21 21 21 22 22 22 23 23 23 23 24 24 25 27 28 28 29 30 30 31 32 33 35 35 35 36 37 37 38 38 38 39 37 37 38 37 36 35 35 35 35 34 35 34 34 38 42 42 43 43 42 41 40 39 38 35 31 29 28 27 27 26 26 26
12 12 14 17 17 13 9 6 3 4 6 7 7 9 9 7 9 12 14 15 17 18 19 19 18 19 19 19 19 20 21 21 20 21 22 23 23 24 25 25 27 29 30 31 31 32 33 33 34 36 36 36 37 39 40 40 39 39 38 37 36 37 37 37 37 36 33 31 35 41 41 42 45 45 42 41 41 40 39 37 34 32 29 29 28 28 27 27
11 11 14 18 19 15 10 7 4 1 5 8 8 10 10 8 9 12 13 15 16 16 17 17 17 17 17 18 18 18 19 19 19 19 19 20 21 21 22 22 23 26 28 30 31 31 32 33 33 34 34 35 37 38 39 39 39 39 40 40 39 38 38 39 39 39 35 31 30 35 40 44 45 43 41 41 41 41 40 39 37 34 31 30 31 29 29 29
10 10 12 15 18 17 12 8 5 2 2 6 9 11 12 11 11 11 13 15 15 14 15 17 18 17 17 18 18 18 18 18 18 18 18 18 19 20 20 21 21 23 25 27 29 31 32 32 33 34 34 35 36 36 38 39 39 40 41 41 40 39 40 39 37 38 38 36 30 27 36 45 43 39 41 41 41 41 40 40 38 35 33 32 33 32 31 30
10 8 10 13 16 18 16 12 7 3 1 3 6 9 12 13 13 13 13 14 15 14 15 16 17 17 18 18 18 18 18 18 18 19 19 19 19 19 19 20 21 22 24 25 27 29 31 32 33 34 34 33 34 35 37 38 38 40 40 41 40 41 42 40 37 36 38 41 38 30 33 40 38 37 40 40 40 40 40 40 38 35 33 34 35 34 32 31
11 7 8 10 13 15 16 15 11 7 4 2 3 6 9 11 13 14 14 15 15 15 14 15 16 16 17 17 17 18 17 18 18 19 19 20 20 21 21 21 22 23 24 25 26 28 30 31 32 34 33 33 33 34 35 36 38 39 40 41 41 42 43 41 40 39 37 40 43 39 38 38 35 37 40 39 40 40 39 39 38 36 34 35 37 35 33 33
13 8 6 7 10 12 14 15 14 11 8 5 3 4 6 8 10 13 14 15 16 16 15 16 16 16 16 16 16 17 17 18 18 19 20 20 21 22 23 23 23 24 25 26 27 28 29 31 31 32 32 33 34 34 35 36 38 39 40 40 41 42 42 41 42 42 39 39 41 42 41 39 36 37 40 39 39 40 39 39 38 37 36 36 36 35 35 34
14 9 6 5 7 9 10 12 12 12 10 9 7 5 4 5 6 9 10 12 14 16 17 17 18 18 18 18 17 17 17 17 18 19 20 21 22 22 23 24 25 25 26 27 28 29 30 31 32 32 32 33 34 35 37 37 37 38 39 40 41 41 41 42 42 43 42 42 41 41 41 38 35 37 39 39 39 39 39 39 39 40 39 37 36 36 37 37
14 11 7 5 5 7 8 8 9 10 10 10 10 9 8 6 6 7 8 10 11 13 14 15 16 17 18 19 18 18 17 16 17 19 20 22 22 22 23 24 25 26 27 28 29 30 31 32 33 34 35 35 36 37 38 37 37 38 39 40 41 41 41 42 42 42 43 43 43 44 43 39 37 38 39 40 40 39 39 40 40 41 42 40 39 39 39 39
13 12 9 6 5 5 6 5 6 6 7 7 8 10 11 10 10 8 7 8 10 11 13 14 14 15 16 17 17 17 17 17 18 19 20 21 22 22 22 23 24 26 27 28 29 30 32 32 33 34 35 35 36 36 36 36 37 38 39 40 41 41 41 42 43 43 44 44 45 46 46 44 43 42 41 41 41 40 40 40 40 41 43 43 42 41 42 41
12 11 10 8 7 6 5 4 3 2 3 4 5 6 8 9 10 11 10 10 9 8 10 11 12 13 14 15 16 16 17 18 19 20 21 21 21 22 22 22 23 24 25 26 27 28 30 31 32 33 34 34 34 34 34 35 36 36 37 39 40 41 41 42 43 44 43 44 46 47 46 47 47 45 44 43 43 42 42 41 41 41 42 44 45 45 45 44
11 10 9 8 8 8 6 4 2 0 1 2 2 3 4 4 6 7 8 9 10 10 10 9 9 11 11 12 13 14 16 16 17 19 20 20 20 21 21 21 22 22 23 23 24 25 26 27 29 31 32 33 34 34 35 34 35 35 36 37 38 40 41 41 42 43 43 44 46 46 46 47 47 46 46 45 44 44 44 43 43 42 42 45 47 48 48 47
10 10 9 9 9 8 7 5 3 0 2 3 2 1 1 1 1 2 3 5 6 8 9 9 9 10 10 10 10 11 12 12 13 14 14 15 16 17 18 18 19 19 20 21 21 22 23 24 25 26 28 30 32 33 34 35 36 36 36 36 37 38 40 41 42 42 43 44 45 45 45 47 46 46 47 47 46 46 46 45 45 44 44 45 47 50 51 50
10 10 9 8 8 8 8 6 5 2 1 4 4 4 4 3 3 2 2 1 2 3 5 6 7 8 8 8 8 9 9 10 10 10 11 11 11 12 13 13 14 14 15 17 18 19 20 21 22 23 24 26 27 29 31 33 34 36 37 37 37 38 39 40 41 42 43 44 45 44 45 47 47 46 47 48 48 48 47 47 47 46 46 45 46 50 52 52
8 9 9 8 7 7 7 7 6 5 3 2 4 6 7 6 6 5 5 4 4 4 4 4 5 5 6 6 6 6 7 7 8 8 8 9 9 10 10 11 11 12 12 13 14 16 17 18 18 20 21 22 23 25 26 28 30 33 36 36 37 38 40 40 40 41 42 44 45 45 46 46 46 46 47 48 49 48 48 48 48 48 48 47 47 49 51 54
Wind_Direction
278 276 275 274 274 274 273 272 270 267 266 265 262 260 259 259 258 257 254 251 248 246 243 241 240 242 243 243 243 241 241 241 239 234 227 225 223 216 216 218 214 209 208 210 211 213 215 216 218 221 224 225 220 214 207 199 197 198 193 195 166 134 128 133 141 151 149 147 149 149 151 149 145 144 140 142 143 135 130 128 132 131 128 129 137 156 150 137
278 277 276 275 274 273 272 271 269 267 265 265 263 261 258 256 255 255 254 252 249 247 244 241 239 238 240 242 242 242 241 240 239 234 227 225 224 219 217 219 215 209 210 211 211 213 213 215 216 217 220 223 220 217 211 201 201 199 189 194 179 157 151 143 149 163 161 157 157 155 156 153 151 150 146 148 144 134 131 128 136 134 129 130 135 156 155 135
278 277 276 275 274 273 271 270 269 267 264 263 262 261 259 256 254 253 253 252 250 247 245 242 239 237 236 239 241 242 242 240 239 235 229 225 223 221 219 220 216 209 210 212 214 218 216 220 222 220 221 221 220 218 214 206 203 201 192 191 180 165 165 158 153 164 170 170 168 164 164 162 160 155 149 151 144 133 128 123 136 138 132 130 134 150 152 133
279 278 276 275 274 272 271 270 268 266 264 261 260 260 259 257 255 252 251 251 250 248 245 243 241 238 236 235 237 240 241 240 239 236 231 226 223 222 220 219 217 211 210 211 213 218 218 219 222 224 226 223 220 218 214 208 203 200 195 186 175 167 167 168 159 162 178 182 180 175 171 169 167 162 154 155 149 137 130 120 129 141 137 133 134 146 150 136
282 280 277 274 272 270 269 268 266 265 262 260 258 257 257 257 255 253 251 250 249 248 246 244 241 240 237 235 234 236 239 239 238 237 232 227 224 222 221 219 217 212 209 209 209 210 212 212 213 217 222 223 222 218 215 210 202 198 196 186 175 168 159 161 159 156 171 187 189 185 181 178 176 170 158 152 148 140 134 126 120 133 138 136 136 144 152 142
280 280 278 276 272 268 266 264 263 262 260 259 257 255 254 254 254 253 252 250 248 248 247 245 242 240 239 236 234 233 237 238 237 237 233 228 225 221 220 218 217 213 208 208 208 206 206 205 207 211 214 216 218 217 214 207 200 197 193 185 178 172 161 152 151 155 169 195 198 190 186 183 183 180 161 149 149 139 135 133 126 125 134 140 139 143 151 148
277 277 277 276 274 270 266 262 259 257 256 256 254 253 251 251 252 252 251 250 248 247 246 245 243 240 238 237 235 234 234 236 236 235 234 230 225 221 220 219 217 214 209 207 207 205 205 204 202 205 210 211 211 212 209 202 198 197 191 185 180 178 171 156 148 156 172 195 195 191 189 183 185 189 171 155 156 148 142 144 135 128 133 142 143 141 148 150
278 276 274 273 273 271 268 263 258 254 252 251 251 250 249 249 249 250 249 249 248 247 245 244 243 241 239 237 236 235 233 234 234 233 233 231 225 220 219 219 217 214 211 209 207 205 205 206 203 203 207 208 206 205 202 196 195 196 192 186 184 182 179 170 159 157 168 183 187 189 191 188 187 188 178 163 162 158 151 149 141 134 135 142 147 144 147 152
282 278 275 272 270 269 267 264 260 255 250 248 248 247 246 246 246 247 247 247 247 247 245 242 241 241 240 238 236 235 233 233 233 231 231 230 226 220 217 218 216 213 211 210 209 207 207 208 207 207 210 209 203 202 198 190 192 194 190 186 185 185 185 181 171 160 161 175 190 194 191 192 191 185 178 168 168 167 156 150 144 139 140 144 150 150 151 156
284 281 278 274 271 268 265 263 260 256 251 248 246 244 244 244 244 244 245 245 246 245 244 242 240 239 239 238 236 233 232 232 232 230 229 229 226 220 216 217 216 214 212 210 209 208 208 210 211 211 213 211 204 203 197 187 190 192 186 184 183 186 188 186 178 167 163 171 194 200 196 195 194 188 178 171 173 174 162 152 146 143 143 147 152 153 155 160
287 284 281 277 273 269 266 263 260 256 252 249 246 244 242 242 242 242 242 243 243 244 243 242 239 237 237 237 236 233 231 231 231 230 228 227 226 221 216 215 215 213 212 211 210 208 208 211 213 215 214 210 205 205 197 185 186 189 185 182 183 186 185 185 184 176 173 172 184 197 199 195 193 190 180 174 175 176 169 156 148 145 147 151 154 154 158 165
290 288 285 281 277 273 269 266 262 258 254 251 248 245 243 241 241 241 241 241 241 241 241 241 239 236 235 235 235 233 231 230 229 229 228 226 224 221 217 215 214 214 213 212 211 210 210 211 213 216 213 207 207 206 198 186 184 188 187 183 185 188 183 184 189 186 184 180 179 187 193 193 195 192 181 176 177 174 171 160 150 148 150 155 157 156 159 167
296 293 290 287 283 279 274 270 266 261 257 254 250 247 244 242 240 240 240 240 239 239 240 239 238 236 234 233 233 232 231 230 228 227 227 225 223 220 217 215 214 214 215 214 213 212 212 213 214 215 212 208 206 202 196 189 185 188 190 186 185 187 186 185 187 191 193 189 184 181 185 190 195 193 182 177 177 173 170 162 155 153 153 159 161 158 159 164
302 299 295 292 288 284 279 274 268 263 260 257 254 249 246 243 241 239 239 239 239 238 238 238 237 236 233 231 231 230 229 228 228 225 225 224 221 219 217 215 213 213 214 212 212 212 213 215 215 214 212 208 203 197 193 190 188 189 190 186 183 188 191 188 185 190 195 196 192 183 186 191 195 193 184 178 178 175 171 165 160 158 156 161 163 161 159 158
310 306 301 297 293 289 284 278 272 266 261 258 255 251 248 245 242 240 239 238 238 238 237 236 236 235 232 230 229 228 227 226 227 225 224 223 221 219 217 215 214 213 213 210 207 208 212 215 216 215 211 206 202 197 193 191 191 191 191 188 187 191 194 191 189 188 192 199 201 198 200 200 197 193 186 182 179 174 173 169 163 161 158 161 164 163 160 156
319 315 309 304 301 296 290 284 278 270 264 260 256 251 248 246 243 241 239 238 238 237 236 234 233 232 230 229 228 226 224 224 225 225 224 223 222 220 218 215 213 213 213 209 205 205 207 211 215 216 212 205 201 195 191 192 192 191 192 192 192 192 192 192 191 188 191 198 202 211 217 207 197 191 188 185 179 173 173 171 166 163 160 160 164 165 162 159
325 321 315 311 308 303 297 291 284 276 269 264 258 252 248 245 243 242 240 239 238 237 236 233 232 231 229 228 226 224 221 220 221 222 223 222 220 218 217 216 212 212 213 209 205 204 205 208 211 215 214 209 202 193 190 190 192 194 195 195 194 192 190 190 188 187 190 196 202 213 215 203 195 192 191 186 178 172 172 171 166 164 163 163 165 168 167 163
327 324 321 317 314 309 302 296 290 281 273 267 260 254 249 245 243 241 240 239 237 236 234 232 231 229 227 226 224 222 220 218 218 219 220 220 219 217 215 215 212 211 211 208 205 205 205 205 206 210 211 209 202 194 192 191 192 197 198 197 196 195 194 190 185 182 186 193 202 206 198 192 192 193 191 184 177 174 172 170 166 163 165 167 167 170 170 168
327 326 324 321 316 310 302 297 291 283 276 269 261 254 248 244 242 241 239 238 236 235 233 231 230 228 227 225 222 220 218 216 215 216 217 217 217 216 214 213 211 210 210 208 205 205 206 205 207 209 208 207 202 196 196 195 193 195 197 195 194 196 196 192 184 180 186 191 193 192 186 185 189 191 187 180 177 175 172 168 164 163 167 169 169 173 174 172
330 328 327 323 318 310 301 294 287 279 273 267 260 255 250 246 244 241 239 237 235 234 232 231 229 228 227 224 220 217 215 213 212 212 213 213 213 213 213 211 209 208 209 206 204 205 206 205 207 208 207 206 203 200 199 197 195 196 196 193 193 197 196 191 183 183 194 194 187 188 185 184 187 187 183 181 179 175 172 168 165 165 167 169 171 174 176 175
332 331 329 325 320 311 302 294 285 277 271 265 260 256 253 249 246 242 240 237 234 232 230 229 228 227 225 222 219 216 213 211 210 210 210 211 210 209 210 209 208 207 207 204 202 204 204 204 205 205 206 205 202 202 198 194 195 195 194 192 195 199 196 191 185 186 196 195 191 190 186 186 189 188 184 184 182 176 173 171 169 169 168 169 173 174 175 176
334 332 329 326 320 313 306 297 287 278 272 268 263 258 254 250 247 243 239 236 232 229 227 226 226 226 223 220 217 215 212 210 208 208 208 208 208 208 207 207 206 205 204 203 203 204 202 202 204 206 207 204 202 202 198 195 193 193 195 194 197 200 194 192 189 187 193 196 197 195 188 188 192 193 187 183 182 180 176 175 174 174 171 169 170 171 172 174
335 333 329 326 321 314 308 300 288 278 273 270 265 260 255 251 249 245 240 235 230 225 222 221 222 223 221 218 215 213 211 209 207 206 205 205 205 206 206 205 206 205 201 199 202 204 202 201 204 205 207 204 202 202 199 196 193 193 195 194 199 200 193 194 192 186 191 196 200 200 197 197 198 197 188 181 180 180 177 178 178 177 176 173 169 168 170 173
336 333 330 327 322 316 311 302 292 283 277 273 268 264 259 255 251 247 240 233 227 222 219 218 217 218 218 216 214 212 211 209 207 204 202 202 203 203 204 204 205 203 199 197 197 201 202 202 203 205 207 205 203 201 199 196 194 196 194 194 201 200 194 195 190 185 192 195 199 202 201 204 201 194 188 181 179 182 182 182 183 183 183 178 170 169 173 175
337 335 333 330 325 320 314 306 297 290 284 278 272 267 262 256 250 243 235 227 221 217 215 214 213 213 213 213 212 211 211 209 207 204 201 201 200 200 202 203 204 202 199 196 194 197 201 201 202 204 206 206 205 203 200 197 196 197 195 196 202 201 196 195 188 186 193 195 198 199 196 201 201 190 185 184 183 185 188 190 190 189 185 178 172 174 176 178
339 337 335 331 327 322 316 309 300 294 288 282 275 267 260 253 243 235 227 219 215 211 210 209 208 208 208 209 209 209 210 209 206 204 202 200 199 199 201 201 202 202 198 195 195 197 197 197 201 204 205 205 205 204 202 200 198 198 198 197 200 202 199 196 189 187 194 195 195 195 192 195 199 193 189 192 190 189 192 194 196 193 185 180 179 180 178 177
340 338 335 332 329 325 319 312 303 296 290 283 274 263 254 247 237 229 220 213 211 208 205 205 203 202 204 205 205 206 207 207 205 204 202 200 198 198 199 201 201 201 198 195 196 197 195 196 201 204 204 205 205 204 204 202 200 202 201 196 197 201 200 198 193 192 196 193 190 196 197 195 196 194 192 194 195 196 196 196 199 196 186 183 184 186 183 178
341 339 337 337 336 331 325 319 311 302 292 281 270 258 248 241 231 220 208 205 207 204 201 201 200 199 201 202 202 204 205 204 203 202 201 199 198 197 199 200 200 199 198 197 198 197 194 196 200 202 204 206 206 205 205 202 203 206 202 196 199 201 201 199 196 197 198 190 190 198 200 201 201 194 193 195 196 199 199 198 198 196 191 187 186 189 189 183
342 341 341 342 341 337 331 327 321 311 296 281 268 255 241 231 220 208 204 202 200 199 197 196 195 196 199 200 200 203 204 203 202 201 200 199 197 197 198 200 199 198 196 198 200 196 193 196 199 200 203 205 206 206 204 202 205 208 203 200 202 202 203 203 201 201 198 192 195 198 197 205 205 197 196 196 195 198 199 199 197 195 196 193 187 189 191 187
344 346 347 348 346 341 337 334 327 316 300 282 267 248 229 219 204 196 203 202 195 194 194 193 193 193 196 199 200 200 200 201 201 200 199 199 197 197 198 199 200 198 197 200 202 197 194 197 199 200 202 204 205 205 203 202 206 206 203 204 205 203 205 206 206 206 201 198 200 196 197 207 207 200 199 194 192 197 198 200 198 196 199 199 195 194 193 190
348 351 354 356 353 346 343 343 338 327 311 285 258 230 211 203 194 192 198 196 192 191 190 191 192 192 193 196 198 199 198 198 199 198 198 198 197 197 197 198 199 199 199 201 201 198 197 198 198 198 200 201 203 204 204 203 204 204 204 205 206 206 206 207 209 209 204 203 205 199 197 209 213 203 197 192 191 196 198 200 201 200 201 204 205 203 201 196
353 357 1 2 358 352 350 354 359 4 7 8 65 191 188 187 194 196 191 187 189 190 188 188 189 191 193 194 195 196 197 196 197 198 197 197 198 197 196 198 199 200 202 202 200 197 199 200 198 197 197 197 199 202 204 203 202 203 204 204 206 208 207 208 210 210 206 207 209 203 199 210 216 209 199 195 194 196 198 201 205 206 207 209 211 211 210 205
358 3 5 3 360 358 359 6 19 35 48 56 68 115 168 179 192 194 188 187 188 188 188 187 187 190 191 191 191 192 194 195 195 196 197 197 197 197 197 198 199 201 203 203 200 198 200 201 199 197 197 197 199 200 201 202 202 203 204 204 206 208 209 211 211 208 208 211 210 205 205 212 216 211 204 200 198 200 203 206 210 213 215 216 216 216 217 216
0 5 6 2 359 359 4 15 31 46 56 68 83 111 158 174 185 187 186 189 188 186 186 185 186 189 189 189 190 190 191 193 193 193 194 196 196 196 197 198 199 201 203 204 202 199 201 202 200 199 198 198 200 202 202 201 202 204 204 203 205 208 210 213 215 211 210 214 213 206 210 216 216 211 207 204 202 204 207 210 213 216 219 220 219 217 218 220
1 6 5 -0 357 358 4 20 39 51 59 79 96 112 152 168 178 183 182 183 185 185 183 183 185 188 188 187 188 191 193 194 194 193 193 194 194 195 197 198 200 201 202 204 204 202 203 204 201 200 200 200 202 204 204 203 204 206 206 205 205 208 208 208 215 214 210 215 216 210 213 217 216 212 209 209 208 207 209 213 215 217 219 221 221 219 218 218
2 7 4 359 358 355 358 21 48 64 65 74 101 120 146 166 175 179 179 179 183 183 181 181 183 185 187 188 188 189 192 194 196 196 195 195 195 195 196 198 201 201 201 203 204 204 208 208 203 201 202 202 203 204 204 203 206 208 208 208 209 210 208 208 214 214 209 213 216 214 217 219 218 215 211 211 211 210 212 215 217 218 219 222 223 221 218 216
5 8 6 5 5 358 353 15 56 84 82 73 103 128 140 160 172 175 176 177 180 181 180 182 185 185 187 189 189 189 190 193 196 197 197 198 198 197 197 198 200 201 202 203 202 203 208 210 207 206 205 204 204 205 205 205 207 207 207 209 210 211 212 212 215 215 210 211 214 215 219 220 219 218 214 212 212 212 212 215 215 215 217 221 224 224 221 219
9 11 12 16 16 10 360 359 49 96 101 95 107 123 135 154 169 173 176 176 177 180 183 185 186 187 188 191 192 191 192 195 197 198 199 200 201 201 200 200 200 201 201 202 202 202 206 210 211 210 209 207 205 206 207 207 208 209 210 212 210 210 212 212 214 216 210 209 213 216 218 219 219 219 216 214 214 213 214 214 212 212 216 221 225 227 225 222
14 14 20 25 26 23 16 4 14 96 116 121 120 122 130 149 167 173 175 176 177 181 184 183 183 186 189 191 194 195 196 198 199 201 203 204 205 205 204 204 204 204 203 202 202 202 204 209 211 211 212 210 208 209 210 208 208 211 213 214 213 211 212 212 212 214 209 207 216 219 218 220 220 218 216 215 216 215 216 216 214 216 221 224 226 227 227 225
19 18 25 31 32 33 34 26 10 60 133 138 135 132 133 143 163 173 176 176 177 179 180 177 177 183 187 188 191 195 198 200 201 203 205 207 209 209 209 208 206 208 207 204 203 202 203 209 211 211 212 213 212 211 211 210 209 211 212 214 214 214 215 215 214 214 208 204 215 223 223 222 220 218 216 216 216 216 217 218 218 221 225 224 223 224 227 228
21 22 29 34 36 39 42 44 33 0 159 150 149 147 145 148 159 172 178 179 178 178 179 178 177 180 185 186 188 190 192 195 198 200 201 203 206 208 210 209 207 209 209 208 207 205 204 208 212 212 212 213 213 212 213 213 212 213 215 216 216 215 217 218 218 219 214 208 210 219 226 225 221 219 219 217 217 217 217 220 220 222 224 223 220 220 224 228
22 26 31 34 37 41 45 49 52 41 43 161 163 162 159 157 160 168 176 182 185 184 184 186 185 185 187 189 191 192 193 194 196 198 198 200 202 205 207 207 206 208 209 210 211 209 208 210 213 215 214 215 214 213 215 216 215 215 217 218 217 217 218 217 216 220 218 215 214 219 229 229 222 221 221 219 218 218 217 219 219 220 221 221 218 216 220 226
23 31 35 34 36 42 47 50 55 61 68 104 163 176 175 171 168 170 173 179 187 190 191 192 193 193 193 194 196 197 199 201 203 204 204 205 206 207 208 207 206 207 208 209 211 211 211 212 214 216 217 216 216 215 216 216 217 217 217 218 218 219 220 218 219 220 218 217 218 222 232 232 224 222 223 220 219 219 218 219 218 217 218 219 217 214 216 222
24 35 37 33 34 40 46 49 53 61 72 85 116 165 186 186 181 179 179 182 187 192 195 197 199 200 198 197 199 202 205 207 209 210 210 211 211 211 212 212 210 209 209 210 211 211 212 213 214 216 218 218 218 217 217 216 217 218 218 220 220 220 221 220 221 223 222 220 218 221 229 231 225 223 223 221 220 219 219 219 218 216 216 217 217 215 215 219
22 31 32 28 33 37 41 47 50 57 69 80 93 115 153 182 192 193 192 191 193 197 200 201 203 205 205 206 207 208 210 211 212 212 212 212 213 213 215 215 215 215 214 214 213 213 213 213 213 215 217 218 219 218 217 217 217 218 218 220 221 221 221 221 222 223 225 225 222 222 227 228 226 226 225 224 223 221 219 219 218 217 215 215 217 217 216 217
17 25 29 30 31 32 35 41 46 53 65 76 85 95 108 125 152 179 194 198 200 203 205 205 205 207 209 211 212 211 211 211 211 211 211 212 213 215 216 217 218 218 218 219 218 217 217 216 215 217 217 218 219 219 218 217 218 218 218 220 221 221 221 222 222 223 225 226 224 225 227 227 227 227 227 226 226 224 221 219 218 217 216 215 216 216 216 215
15 20 23 24 16 14 25 33 36 47 60 69 80 92 98 103 111 123 146 171 187 198 202 205 207 207 209 211 212 212 212 212 211 210 211 213 214 216 218 219 220 221 221 222 222 222 223 222 221 222 222 223 223 222 221 219 219 219 218 219 221 222 222 222 222 223 225 226 226 227 228 229 229 229 229 228 227 227 225 221 218 217 217 216 215 215 215 214
15 19 19 20 13 5 10 19 20 42 66 70 78 88 94 98 102 105 109 119 136 160 176 186 195 200 205 208 211 212 213 214 214 213 214 216 218 220 222 223 224 225 225 225 226 226 227 228 228 228 228 228 229 228 227 225 223 222 221 220 221 222 223 223 224 225 225 226 227 228 229 231 231 231 232 231 229 228 228 225 221 218 217 217 216 215 215 214
11 17 19 21 21 15 10 10 12 78 163 124 100 92 92 95 99 104 109 112 115 122 131 143 158 169 179 190 198 203 206 209 212 215 217 221 223 225 226 227 228 228 228 228 228 228 229 230 231 231 232 232 232 233 233 231 229 227 224 223 222 223 224 225 226 226 226 227 228 228 229 231 231 232 233 234 232 231 229 228 225 221 218 217 216 216 216 215
5 11 18 20 22 23 19 11 7 343 208 207 202 196 187 169 124 115 120 123 124 126 127 130 138 144 152 161 167 174 183 189 195 201 207 212 216 220 222 224 226 227 227 228 228 229 230 231 231 231 233 234 234 234 235 235 234 232 230 228 226 225 225 226 228 228 229 229 229 229 229 230 231 231 233 234 234 233 231 230 229 226 222 218 217 217 217 216
3 3 12 19 21 23 25 21 15 9 241 227 229 235 242 247 246 243 234 205 175 158 152 154 154 153 155 157 158 159 163 170 175 180 186 191 197 205 210 214 217 221 223 225 226 228 229 230 230 231 232 233 233 234 235 235 236 235 234 231 229 228 227 226 227 229 230 232 232 232 232 231 230 231 232 233 235 235 234 233 231 229 226 222 218 217 218 217
4 0 4 14 20 20 23 27 27 22 6 271 243 242 245 246 246 245 243 242 238 228 218 209 195 183 178 175 174 176 177 180 184 187 191 194 198 203 206 209 213 217 219 222 224 227 229 230 230 231 232 233 232 233 233 234 235 236 235 233 233 232 230 229 229 229 230 232 233 234 234 232 231 232 233 234 234 235 236 235 234 232 231 227 222 219 219 219